datetime,min air temp
1990-10-01,39.38
1990-10-02,29.48
1990-10-03,36.86
1990-10-04,43.88
1990-10-05,26.78
1990-10-06,19.76
1990-10-07,24.08
1990-10-08,29.3
1990-10-09,39.74
1990-10-10,30.74
1990-10-11,27.86
1990-10-12,38.84
1990-10-13,30.2
1990-10-14,29.84
1990-10-15,37.22
1990-10-16,28.4
1990-10-17,28.22
1990-10-18,28.94
1990-10-19,23.0
1990-10-20,24.98
1990-10-21,37.4
1990-10-22,33.8
1990-10-23,32.18
1990-10-24,42.8
1990-10-25,41.9
1990-10-26,38.12
1990-10-27,39.92
1990-10-28,26.78
1990-10-29,27.32
1990-10-30,35.42
1990-10-31,26.96
1990-11-01,19.22
1990-11-02,17.96
1990-11-03,30.2
1990-11-04,30.02
1990-11-05,24.62
1990-11-06,22.82
1990-11-07,25.52
1990-11-08,35.96
1990-11-09,32.54
1990-11-10,37.4
1990-11-11,41.36
1990-11-12,39.56
1990-11-13,28.94
1990-11-14,21.74
1990-11-15,22.1
1990-11-16,26.6
1990-11-17,31.28
1990-11-18,30.74
1990-11-19,
1990-11-20,22.1
1990-11-21,27.86
1990-11-22,27.5
1990-11-23,26.42
1990-11-24,33.44
1990-11-25,21.38
1990-11-26,19.04
1990-11-27,19.4
1990-11-28,18.32
1990-11-29,25.52
1990-11-30,17.06
1990-12-01,17.78
1990-12-02,21.74
1990-12-03,23.18
1990-12-04,26.24
1990-12-05,16.52
1990-12-06,22.64
1990-12-07,27.32
1990-12-08,32.9
1990-12-09,32.72
1990-12-10,27.32
1990-12-11,17.06
1990-12-12,17.6
1990-12-13,14.18
1990-12-14,12.02
1990-12-15,17.78
1990-12-16,21.2
1990-12-17,27.5
1990-12-18,16.16
1990-12-19,-7.78
1990-12-20,-18.22
1990-12-21,-18.94
1990-12-22,-5.62
1990-12-23,2.48
1990-12-24,9.32
1990-12-25,15.98
1990-12-26,18.86
1990-12-27,21.38
1990-12-28,10.58
1990-12-29,-6.34
1990-12-30,5.9
1990-12-31,17.42
1991-01-01,26.96
1991-01-02,26.06
1991-01-03,27.32
1991-01-04,24.26
1991-01-05,23.54
1991-01-06,24.62
1991-01-07,25.34
1991-01-08,18.32
1991-01-09,23.18
1991-01-10,30.02
1991-01-11,29.66
1991-01-12,34.88
1991-01-13,33.26
1991-01-14,32.54
1991-01-15,23.36
1991-01-16,22.46
1991-01-17,32.0
1991-01-18,29.66
1991-01-19,23.9
1991-01-20,18.14
1991-01-21,17.96
1991-01-22,31.64
1991-01-23,26.42
1991-01-24,25.34
1991-01-25,21.56
1991-01-26,24.44
1991-01-27,24.44
1991-01-28,16.88
1991-01-29,13.82
1991-01-30,25.16
1991-01-31,28.94
1991-02-01,28.22
1991-02-02,30.38
1991-02-03,30.56
1991-02-04,30.74
1991-02-05,30.02
1991-02-06,27.86
1991-02-07,29.48
1991-02-08,32.0
1991-02-09,29.66
1991-02-10,31.46
1991-02-11,30.56
1991-02-12,27.5
1991-02-13,34.34
1991-02-14,34.7
1991-02-15,33.8
1991-02-16,26.96
1991-02-17,26.42
1991-02-18,27.14
1991-02-19,30.92
1991-02-20,28.22
1991-02-21,30.2
1991-02-22,30.02
1991-02-23,27.32
1991-02-24,27.86
1991-02-25,30.92
1991-02-26,32.0
1991-02-27,32.36
1991-02-28,32.18
1991-03-01,26.96
1991-03-02,27.5
1991-03-03,30.92
1991-03-04,20.66
1991-03-05,16.52
1991-03-06,16.16
1991-03-07,14.18
1991-03-08,19.22
1991-03-09,23.18
1991-03-10,17.42
1991-03-11,14.72
1991-03-12,20.3
1991-03-13,17.42
1991-03-14,18.86
1991-03-15,13.82
1991-03-16,20.48
1991-03-17,23.9
1991-03-18,21.74
1991-03-19,20.66
1991-03-20,23.72
1991-03-21,21.92
1991-03-22,16.88
1991-03-23,24.08
1991-03-24,19.58
1991-03-25,23.18
1991-03-26,21.38
1991-03-27,20.12
1991-03-28,25.34
1991-03-29,22.64
1991-03-30,32.18
1991-03-31,32.0
1991-04-01,28.4
1991-04-02,26.24
1991-04-03,26.06
1991-04-04,33.8
1991-04-05,27.86
1991-04-06,27.86
1991-04-07,20.48
1991-04-08,16.52
1991-04-09,18.5
1991-04-10,15.8
1991-04-11,11.66
1991-04-12,28.58
1991-04-13,27.68
1991-04-14,24.8
1991-04-15,23.18
1991-04-16,22.1
1991-04-17,25.52
1991-04-18,26.78
1991-04-19,28.58
1991-04-20,33.08
1991-04-21,32.0
1991-04-22,33.26
1991-04-23,31.46
1991-04-24,23.36
1991-04-25,22.46
1991-04-26,22.82
1991-04-27,17.78
1991-04-28,24.62
1991-04-29,25.16
1991-04-30,32.0
1991-05-01,30.2
1991-05-02,30.92
1991-05-03,27.14
1991-05-04,30.56
1991-05-05,36.5
1991-05-06,33.26
1991-05-07,32.0
1991-05-08,23.72
1991-05-09,21.2
1991-05-10,24.44
1991-05-11,31.46
1991-05-12,32.0
1991-05-13,31.1
1991-05-14,27.86
1991-05-15,30.56
1991-05-16,31.64
1991-05-17,26.06
1991-05-18,25.7
1991-05-19,25.52
1991-05-20,33.44
1991-05-21,35.78
1991-05-22,33.44
1991-05-23,38.48
1991-05-24,30.92
1991-05-25,24.98
1991-05-26,27.86
1991-05-27,30.38
1991-05-28,30.74
1991-05-29,31.28
1991-05-30,26.6
1991-05-31,27.32
1991-06-01,38.66
1991-06-02,40.64
1991-06-03,33.26
1991-06-04,27.32
1991-06-05,28.04
1991-06-06,29.12
1991-06-07,36.5
1991-06-08,37.04
1991-06-09,44.42
1991-06-10,49.1
1991-06-11,39.92
1991-06-12,32.0
1991-06-13,28.22
1991-06-14,26.96
1991-06-15,36.32
1991-06-16,32.0
1991-06-17,30.92
1991-06-18,38.66
1991-06-19,35.42
1991-06-20,33.8
1991-06-21,32.0
1991-06-22,33.62
1991-06-23,36.14
1991-06-24,38.66
1991-06-25,38.84
1991-06-26,35.24
1991-06-27,40.82
1991-06-28,41.54
1991-06-29,43.52
1991-06-30,37.04
1991-07-01,43.52
1991-07-02,55.22
1991-07-03,59.72
1991-07-04,54.68
1991-07-05,52.52
1991-07-06,50.18
1991-07-07,50.72
1991-07-08,50.54
1991-07-09,46.76
1991-07-10,40.82
1991-07-11,46.22
1991-07-12,51.08
1991-07-13,50.54
1991-07-14,42.98
1991-07-15,44.78
1991-07-16,45.5
1991-07-17,41.72
1991-07-18,42.98
1991-07-19,46.94
1991-07-20,46.4
1991-07-21,46.04
1991-07-22,54.68
1991-07-23,56.66
1991-07-24,46.76
1991-07-25,43.16
1991-07-26,43.52
1991-07-27,51.62
1991-07-28,54.68
1991-07-29,49.64
1991-07-30,49.28
1991-07-31,49.46
1991-08-01,39.38
1991-08-02,48.56
1991-08-03,52.34
1991-08-04,53.24
1991-08-05,48.92
1991-08-06,48.92
1991-08-07,48.02
1991-08-08,46.94
1991-08-09,42.62
1991-08-10,35.24
1991-08-11,46.4
1991-08-12,45.86
1991-08-13,51.62
1991-08-14,50.36
1991-08-15,52.34
1991-08-16,50.36
1991-08-17,54.86
1991-08-18,54.86
1991-08-19,55.22
1991-08-20,46.22
1991-08-21,48.02
1991-08-22,53.24
1991-08-23,46.22
1991-08-24,47.48
1991-08-25,41.9
1991-08-26,45.32
1991-08-27,44.6
1991-08-28,45.32
1991-08-29,44.96
1991-08-30,46.4
1991-08-31,43.7
1991-09-01,44.06
1991-09-02,44.24
1991-09-03,50.72
1991-09-04,56.84
1991-09-05,56.66
1991-09-06,49.64
1991-09-07,42.8
1991-09-08,35.24
1991-09-09,38.12
1991-09-10,38.3
1991-09-11,41.9
1991-09-12,47.84
1991-09-13,46.22
1991-09-14,39.56
1991-09-15,45.5
1991-09-16,55.04
1991-09-17,55.76
1991-09-18,56.12
1991-09-19,56.66
1991-09-20,40.46
1991-09-21,34.7
1991-09-22,40.1
1991-09-23,48.38
1991-09-24,48.56
1991-09-25,56.48
1991-09-26,54.32
1991-09-27,48.74
1991-09-28,46.58
1991-09-29,51.8
1991-09-30,52.88
1991-10-01,49.64
1991-10-02,48.38
1991-10-03,51.44
1991-10-04,43.88
1991-10-05,49.64
1991-10-06,49.82
1991-10-07,40.46
1991-10-08,45.5
1991-10-09,49.1
1991-10-10,51.98
1991-10-11,55.22
1991-10-12,49.82
1991-10-13,46.58
1991-10-14,52.34
1991-10-15,53.42
1991-10-16,40.28
1991-10-17,35.6
1991-10-18,42.08
1991-10-19,42.98
1991-10-20,42.8
1991-10-21,37.94
1991-10-22,26.6
1991-10-23,25.52
1991-10-24,27.14
1991-10-25,30.56
1991-10-26,24.44
1991-10-27,20.48
1991-10-28,19.04
1991-10-29,15.44
1991-10-30,11.48
1991-10-31,29.12
1991-11-01,32.0
1991-11-02,30.74
1991-11-03,33.8
1991-11-04,40.82
1991-11-05,39.92
1991-11-06,41.9
1991-11-07,39.92
1991-11-08,40.1
1991-11-09,30.02
1991-11-10,30.02
1991-11-11,35.6
1991-11-12,37.58
1991-11-13,26.06
1991-11-14,21.02
1991-11-15,19.04
1991-11-16,23.36
1991-11-17,27.86
1991-11-18,25.52
1991-11-19,26.06
1991-11-20,27.5
1991-11-21,19.58
1991-11-22,18.5
1991-11-23,24.62
1991-11-24,33.44
1991-11-25,35.42
1991-11-26,27.86
1991-11-27,19.04
1991-11-28,18.5
1991-11-29,14.72
1991-11-30,13.28
1991-12-01,23.72
1991-12-02,28.58
1991-12-03,24.8
1991-12-04,32.9
1991-12-05,31.82
1991-12-06,28.76
1991-12-07,21.02
1991-12-08,20.84
1991-12-09,25.7
1991-12-10,21.38
1991-12-11,23.0
1991-12-12,22.82
1991-12-13,20.3
1991-12-14,25.34
1991-12-15,29.84
1991-12-16,31.64
1991-12-17,29.66
1991-12-18,21.2
1991-12-19,16.88
1991-12-20,16.16
1991-12-21,24.26
1991-12-22,25.52
1991-12-23,26.96
1991-12-24,26.78
1991-12-25,27.86
1991-12-26,28.94
1991-12-27,29.48
1991-12-28,25.52
1991-12-29,24.08
1991-12-30,20.66
1991-12-31,23.36
1992-01-01,22.82
1992-01-02,24.8
1992-01-03,23.9
1992-01-04,24.62
1992-01-05,25.52
1992-01-06,16.7
1992-01-07,21.38
1992-01-08,20.12
1992-01-09,26.42
1992-01-10,24.62
1992-01-11,14.0
1992-01-12,14.0
1992-01-13,26.42
1992-01-14,28.76
1992-01-15,30.38
1992-01-16,29.3
1992-01-17,21.74
1992-01-18,21.38
1992-01-19,23.54
1992-01-20,24.8
1992-01-21,24.98
1992-01-22,21.56
1992-01-23,28.76
1992-01-24,29.12
1992-01-25,24.62
1992-01-26,25.16
1992-01-27,29.12
1992-01-28,30.56
1992-01-29,27.86
1992-01-30,32.9
1992-01-31,29.48
1992-02-01,21.38
1992-02-02,19.94
1992-02-03,26.24
1992-02-04,28.4
1992-02-05,27.86
1992-02-06,27.32
1992-02-07,25.52
1992-02-08,26.24
1992-02-09,31.28
1992-02-10,30.02
1992-02-11,29.84
1992-02-12,29.66
1992-02-13,27.68
1992-02-14,25.16
1992-02-15,16.88
1992-02-16,24.08
1992-02-17,18.14
1992-02-18,27.32
1992-02-19,31.64
1992-02-20,30.74
1992-02-21,31.46
1992-02-22,25.7
1992-02-23,23.36
1992-02-24,33.98
1992-02-25,35.78
1992-02-26,35.78
1992-02-27,35.96
1992-02-28,36.14
1992-02-29,33.8
1992-03-01,31.82
1992-03-02,31.1
1992-03-03,29.66
1992-03-04,28.4
1992-03-05,29.12
1992-03-06,27.86
1992-03-07,28.04
1992-03-08,29.84
1992-03-09,25.34
1992-03-10,29.12
1992-03-11,33.26
1992-03-12,35.42
1992-03-13,33.08
1992-03-14,28.04
1992-03-15,27.68
1992-03-16,28.4
1992-03-17,24.08
1992-03-18,21.92
1992-03-19,27.68
1992-03-20,32.0
1992-03-21,32.72
1992-03-22,31.64
1992-03-23,28.76
1992-03-24,29.3
1992-03-25,33.98
1992-03-26,30.56
1992-03-27,27.86
1992-03-28,28.22
1992-03-29,32.54
1992-03-30,34.88
1992-03-31,36.5
1992-04-01,37.04
1992-04-02,39.2
1992-04-03,30.38
1992-04-04,22.28
1992-04-05,20.66
1992-04-06,21.56
1992-04-07,26.96
1992-04-08,33.26
1992-04-09,35.96
1992-04-10,33.98
1992-04-11,35.42
1992-04-12,32.0
1992-04-13,31.28
1992-04-14,30.74
1992-04-15,34.34
1992-04-16,37.76
1992-04-17,30.74
1992-04-18,27.32
1992-04-19,30.02
1992-04-20,33.98
1992-04-21,26.24
1992-04-22,20.12
1992-04-23,22.28
1992-04-24,36.86
1992-04-25,41.36
1992-04-26,38.84
1992-04-27,39.38
1992-04-28,40.1
1992-04-29,34.34
1992-04-30,28.4
1992-05-01,24.62
1992-05-02,38.12
1992-05-03,45.14
1992-05-04,47.84
1992-05-05,49.46
1992-05-06,47.3
1992-05-07,48.2
1992-05-08,37.22
1992-05-09,32.0
1992-05-10,37.04
1992-05-11,31.46
1992-05-12,31.1
1992-05-13,40.82
1992-05-14,41.36
1992-05-15,41.18
1992-05-16,40.28
1992-05-17,45.5
1992-05-18,40.46
1992-05-19,37.22
1992-05-20,30.74
1992-05-21,25.34
1992-05-22,41.18
1992-05-23,45.32
1992-05-24,50.18
1992-05-25,44.78
1992-05-26,40.46
1992-05-27,35.24
1992-05-28,43.52
1992-05-29,41.36
1992-05-30,48.38
1992-05-31,50.72
1992-06-01,47.12
1992-06-02,43.52
1992-06-03,48.2
1992-06-04,45.14
1992-06-05,40.46
1992-06-06,46.58
1992-06-07,44.78
1992-06-08,40.82
1992-06-09,42.08
1992-06-10,40.46
1992-06-11,34.52
1992-06-12,32.18
1992-06-13,31.82
1992-06-14,31.1
1992-06-15,30.92
1992-06-16,38.3
1992-06-17,36.86
1992-06-18,45.68
1992-06-19,47.12
1992-06-20,51.8
1992-06-21,56.66
1992-06-22,57.74
1992-06-23,61.88
1992-06-24,50.9
1992-06-25,51.08
1992-06-26,48.02
1992-06-27,51.98
1992-06-28,38.3
1992-06-29,37.94
1992-06-30,37.4
1992-07-01,37.76
1992-07-02,42.8
1992-07-03,43.7
1992-07-04,42.26
1992-07-05,40.82
1992-07-06,38.12
1992-07-07,37.76
1992-07-08,44.42
1992-07-09,41.72
1992-07-10,46.04
1992-07-11,46.94
1992-07-12,46.22
1992-07-13,50.0
1992-07-14,48.38
1992-07-15,47.84
1992-07-16,54.86
1992-07-17,56.12
1992-07-18,52.52
1992-07-19,54.32
1992-07-20,46.22
1992-07-21,44.96
1992-07-22,40.64
1992-07-23,35.06
1992-07-24,42.26
1992-07-25,49.64
1992-07-26,54.86
1992-07-27,54.5
1992-07-28,55.76
1992-07-29,53.24
1992-07-30,60.44
1992-07-31,59.72
1992-08-01,53.6
1992-08-02,50.72
1992-08-03,52.52
1992-08-04,45.5
1992-08-05,46.04
1992-08-06,47.12
1992-08-07,46.94
1992-08-08,43.7
1992-08-09,43.7
1992-08-10,55.04
1992-08-11,61.52
1992-08-12,63.68
1992-08-13,60.26
1992-08-14,60.98
1992-08-15,60.44
1992-08-16,56.12
1992-08-17,59.36
1992-08-18,60.26
1992-08-19,56.84
1992-08-20,48.74
1992-08-21,37.76
1992-08-22,35.24
1992-08-23,34.7
1992-08-24,35.42
1992-08-25,43.34
1992-08-26,49.1
1992-08-27,51.62
1992-08-28,52.52
1992-08-29,47.84
1992-08-30,47.84
1992-08-31,45.86
1992-09-01,43.88
1992-09-02,47.66
1992-09-03,44.78
1992-09-04,41.18
1992-09-05,34.52
1992-09-06,27.86
1992-09-07,36.86
1992-09-08,42.08
1992-09-09,41.9
1992-09-10,53.96
1992-09-11,46.4
1992-09-12,34.52
1992-09-13,35.78
1992-09-14,39.02
1992-09-15,43.16
1992-09-16,42.8
1992-09-17,44.24
1992-09-18,46.94
1992-09-19,45.32
1992-09-20,46.4
1992-09-21,51.62
1992-09-22,52.7
1992-09-23,45.14
1992-09-24,34.88
1992-09-25,34.16
1992-09-26,40.82
1992-09-27,41.54
1992-09-28,48.38
1992-09-29,51.8
1992-09-30,48.74
1992-10-01,34.88
1992-10-02,36.14
1992-10-03,32.72
1992-10-04,30.38
1992-10-05,39.02
1992-10-06,37.22
1992-10-07,39.56
1992-10-08,44.78
1992-10-09,39.74
1992-10-10,45.68
1992-10-11,51.62
1992-10-12,47.12
1992-10-13,34.34
1992-10-14,30.56
1992-10-15,32.0
1992-10-16,34.34
1992-10-17,35.78
1992-10-18,41.0
1992-10-19,38.48
1992-10-20,38.66
1992-10-21,32.9
1992-10-22,32.72
1992-10-23,40.82
1992-10-24,41.36
1992-10-25,41.9
1992-10-26,38.84
1992-10-27,41.0
1992-10-28,32.18
1992-10-29,31.64
1992-10-30,30.92
1992-10-31,31.82
1992-11-01,35.24
1992-11-02,28.22
1992-11-03,27.5
1992-11-04,31.82
1992-11-05,27.14
1992-11-06,40.1
1992-11-07,29.66
1992-11-08,24.8
1992-11-09,15.26
1992-11-10,15.8
1992-11-11,21.92
1992-11-12,32.54
1992-11-13,35.78
1992-11-14,37.22
1992-11-15,35.6
1992-11-16,30.56
1992-11-17,30.74
1992-11-18,23.36
1992-11-19,19.94
1992-11-20,17.6
1992-11-21,23.36
1992-11-22,23.18
1992-11-23,17.78
1992-11-24,15.26
1992-11-25,23.36
1992-11-26,25.52
1992-11-27,26.96
1992-11-28,19.4
1992-11-29,17.78
1992-11-30,26.96
1992-12-01,31.28
1992-12-02,23.9
1992-12-03,12.74
1992-12-04,13.82
1992-12-05,10.22
1992-12-06,20.3
1992-12-07,19.94
1992-12-08,21.92
1992-12-09,22.28
1992-12-10,17.96
1992-12-11,16.7
1992-12-12,17.42
1992-12-13,16.88
1992-12-14,22.64
1992-12-15,14.18
1992-12-16,14.0
1992-12-17,17.78
1992-12-18,13.82
1992-12-19,14.72
1992-12-20,26.96
1992-12-21,23.72
1992-12-22,21.56
1992-12-23,23.0
1992-12-24,23.54
1992-12-25,21.02
1992-12-26,26.6
1992-12-27,26.78
1992-12-28,19.58
1992-12-29,15.26
1992-12-30,14.72
1992-12-31,23.0
1993-01-01,13.28
1993-01-02,6.8
1993-01-03,15.26
1993-01-04,18.32
1993-01-05,18.14
1993-01-06,14.72
1993-01-07,18.86
1993-01-08,17.6
1993-01-09,9.68
1993-01-10,12.38
1993-01-11,14.0
1993-01-12,12.92
1993-01-13,16.34
1993-01-14,19.58
1993-01-15,17.42
1993-01-16,22.82
1993-01-17,20.66
1993-01-18,17.6
1993-01-19,19.04
1993-01-20,27.5
1993-01-21,24.08
1993-01-22,11.84
1993-01-23,11.48
1993-01-24,28.04
1993-01-25,26.6
1993-01-26,28.04
1993-01-27,29.84
1993-01-28,27.86
1993-01-29,22.1
1993-01-30,21.74
1993-01-31,24.08
1993-02-01,23.54
1993-02-02,24.8
1993-02-03,27.32
1993-02-04,25.16
1993-02-05,29.48
1993-02-06,29.3
1993-02-07,26.42
1993-02-08,29.12
1993-02-09,25.34
1993-02-10,24.08
1993-02-11,23.18
1993-02-12,17.96
1993-02-13,18.68
1993-02-14,19.04
1993-02-15,-0.4
1993-02-16,-6.7
1993-02-17,5.18
1993-02-18,16.88
1993-02-19,18.68
1993-02-20,13.1
1993-02-21,15.98
1993-02-22,21.74
1993-02-23,17.78
1993-02-24,7.34
1993-02-25,8.42
1993-02-26,11.48
1993-02-27,12.92
1993-02-28,19.58
1993-03-01,22.46
1993-03-02,29.12
1993-03-03,29.48
1993-03-04,30.74
1993-03-05,30.74
1993-03-06,33.08
1993-03-07,32.54
1993-03-08,33.8
1993-03-09,34.52
1993-03-10,31.82
1993-03-11,28.58
1993-03-12,28.22
1993-03-13,33.26
1993-03-14,32.0
1993-03-15,31.82
1993-03-16,31.82
1993-03-17,33.44
1993-03-18,34.34
1993-03-19,30.56
1993-03-20,30.56
1993-03-21,29.84
1993-03-22,35.78
1993-03-23,30.38
1993-03-24,23.9
1993-03-25,24.44
1993-03-26,26.42
1993-03-27,26.24
1993-03-28,28.4
1993-03-29,27.32
1993-03-30,30.38
1993-03-31,27.14
1993-04-01,23.54
1993-04-02,23.54
1993-04-03,32.0
1993-04-04,25.88
1993-04-05,23.0
1993-04-06,25.52
1993-04-07,26.96
1993-04-08,29.3
1993-04-09,26.6
1993-04-10,22.1
1993-04-11,20.48
1993-04-12,17.42
1993-04-13,27.86
1993-04-14,23.18
1993-04-15,29.84
1993-04-16,29.12
1993-04-17,27.14
1993-04-18,24.8
1993-04-19,22.82
1993-04-20,30.92
1993-04-21,29.48
1993-04-22,26.96
1993-04-23,28.4
1993-04-24,30.2
1993-04-25,27.14
1993-04-26,24.62
1993-04-27,24.98
1993-04-28,31.82
1993-04-29,32.54
1993-04-30,28.4
1993-05-01,34.7
1993-05-02,37.4
1993-05-03,27.68
1993-05-04,26.42
1993-05-05,27.5
1993-05-06,29.12
1993-05-07,26.06
1993-05-08,27.5
1993-05-09,29.12
1993-05-10,42.62
1993-05-11,38.48
1993-05-12,32.0
1993-05-13,29.12
1993-05-14,32.9
1993-05-15,37.04
1993-05-16,40.82
1993-05-17,42.98
1993-05-18,41.18
1993-05-19,39.92
1993-05-20,35.42
1993-05-21,34.34
1993-05-22,30.56
1993-05-23,37.94
1993-05-24,39.2
1993-05-25,35.24
1993-05-26,35.78
1993-05-27,
1993-05-28,33.44
1993-05-29,32.9
1993-05-30,40.28
1993-05-31,36.68
1993-06-01,33.8
1993-06-02,31.64
1993-06-03,30.56
1993-06-04,32.0
1993-06-05,31.46
1993-06-06,35.6
1993-06-07,32.54
1993-06-08,30.56
1993-06-09,37.94
1993-06-10,36.68
1993-06-11,28.58
1993-06-12,26.06
1993-06-13,38.12
1993-06-14,41.9
1993-06-15,37.04
1993-06-16,31.28
1993-06-17,43.52
1993-06-18,48.38
1993-06-19,51.08
1993-06-20,49.1
1993-06-21,32.54
1993-06-22,30.56
1993-06-23,26.78
1993-06-24,39.38
1993-06-25,49.28
1993-06-26,47.84
1993-06-27,38.12
1993-06-28,32.18
1993-06-29,33.8
1993-06-30,40.64
1993-07-01,40.82
1993-07-02,36.86
1993-07-03,33.8
1993-07-04,36.14
1993-07-05,41.72
1993-07-06,42.98
1993-07-07,41.18
1993-07-08,43.16
1993-07-09,46.22
1993-07-10,43.34
1993-07-11,40.1
1993-07-12,35.78
1993-07-13,39.38
1993-07-14,32.9
1993-07-15,35.42
1993-07-16,36.68
1993-07-17,40.1
1993-07-18,38.84
1993-07-19,42.62
1993-07-20,39.92
1993-07-21,36.68
1993-07-22,45.68
1993-07-23,41.72
1993-07-24,35.42
1993-07-25,36.5
1993-07-26,39.38
1993-07-27,47.84
1993-07-28,47.66
1993-07-29,42.26
1993-07-30,36.32
1993-07-31,46.4
1993-08-01,52.16
1993-08-02,53.6
1993-08-03,56.12
1993-08-04,55.22
1993-08-05,54.86
1993-08-06,53.96
1993-08-07,46.58
1993-08-08,46.04
1993-08-09,46.58
1993-08-10,44.6
1993-08-11,43.34
1993-08-12,43.52
1993-08-13,43.88
1993-08-14,42.8
1993-08-15,36.86
1993-08-16,40.28
1993-08-17,41.18
1993-08-18,47.84
1993-08-19,46.58
1993-08-20,44.06
1993-08-21,41.72
1993-08-22,43.88
1993-08-23,38.84
1993-08-24,32.72
1993-08-25,31.28
1993-08-26,48.56
1993-08-27,46.04
1993-08-28,46.04
1993-08-29,
1993-08-30,42.8
1993-08-31,49.64
1993-09-01,52.88
1993-09-02,47.3
1993-09-03,51.26
1993-09-04,50.36
1993-09-05,51.08
1993-09-06,53.06
1993-09-07,50.36
1993-09-08,56.12
1993-09-09,56.66
1993-09-10,57.56
1993-09-11,43.34
1993-09-12,31.46
1993-09-13,35.78
1993-09-14,44.42
1993-09-15,37.22
1993-09-16,39.56
1993-09-17,35.06
1993-09-18,34.52
1993-09-19,34.52
1993-09-20,27.14
1993-09-21,30.38
1993-09-22,33.08
1993-09-23,
1993-09-24,41.9
1993-09-25,43.16
1993-09-26,45.32
1993-09-27,53.42
1993-09-28,53.42
1993-09-29,53.96
1993-09-30,56.3
1993-10-01,
1993-10-02,
1993-10-03,51.98
1993-10-04,49.64
1993-10-05,42.98
1993-10-06,39.02
1993-10-07,32.0
1993-10-08,
1993-10-09,30.56
1993-10-10,39.92
1993-10-11,
1993-10-12,39.74
1993-10-13,37.04
1993-10-14,34.34
1993-10-15,35.6
1993-10-16,30.02
1993-10-17,27.86
1993-10-18,30.56
1993-10-19,33.62
1993-10-20,36.86
1993-10-21,
1993-10-22,38.12
1993-10-23,38.48
1993-10-24,
1993-10-25,38.66
1993-10-26,37.94
1993-10-27,42.26
1993-10-28,42.98
1993-10-29,39.02
1993-10-30,37.04
1993-10-31,
1993-11-01,25.52
1993-11-02,33.62
1993-11-03,28.58
1993-11-04,24.62
1993-11-05,26.42
1993-11-06,32.0
1993-11-07,
1993-11-08,
1993-11-09,30.38
1993-11-10,27.5
1993-11-11,
1993-11-12,21.74
1993-11-13,21.92
1993-11-14,23.54
1993-11-15,27.5
1993-11-16,29.12
1993-11-17,24.98
1993-11-18,15.26
1993-11-19,
1993-11-20,
1993-11-21,
1993-11-22,16.16
1993-11-23,6.8
1993-11-24,
1993-11-25,12.56
1993-11-26,
1993-11-27,
1993-11-28,28.22
1993-11-29,28.4
1993-11-30,22.28
1993-12-01,26.42
1993-12-02,22.82
1993-12-03,29.84
1993-12-04,20.84
1993-12-05,19.76
1993-12-06,21.02
1993-12-07,26.96
1993-12-08,26.06
1993-12-09,
1993-12-10,33.98
1993-12-11,20.84
1993-12-12,
1993-12-13,22.28
1993-12-14,22.64
1993-12-15,19.94
1993-12-16,15.26
1993-12-17,14.36
1993-12-18,15.62
1993-12-19,18.5
1993-12-20,22.1
1993-12-21,25.52
1993-12-22,23.72
1993-12-23,
1993-12-24,24.98
1993-12-25,
1993-12-26,27.32
1993-12-27,
1993-12-28,26.24
1993-12-29,25.88
1993-12-30,27.14
1993-12-31,25.7
1994-01-01,28.76
1994-01-02,
1994-01-03,29.66
1994-01-04,
1994-01-05,24.62
1994-01-06,21.56
1994-01-07,21.2
1994-01-08,26.78
1994-01-09,23.18
1994-01-10,19.76
1994-01-11,25.7
1994-01-12,26.6
1994-01-13,31.1
1994-01-14,
1994-01-15,28.94
1994-01-16,32.18
1994-01-17,31.28
1994-01-18,35.06
1994-01-19,35.96
1994-01-20,33.26
1994-01-21,32.0
1994-01-22,32.54
1994-01-23,29.3
1994-01-24,22.46
1994-01-25,22.28
1994-01-26,19.4
1994-01-27,16.16
1994-01-28,18.86
1994-01-29,21.56
1994-01-30,19.4
1994-01-31,15.98
1994-02-01,20.66
1994-02-02,22.64
1994-02-03,20.66
1994-02-04,22.64
1994-02-05,21.74
1994-02-06,23.54
1994-02-07,16.34
1994-02-08,5.9
1994-02-09,23.72
1994-02-10,16.16
1994-02-11,15.62
1994-02-12,15.08
1994-02-13,20.48
1994-02-14,24.62
1994-02-15,26.6
1994-02-16,26.78
1994-02-17,
1994-02-18,20.48
1994-02-19,
1994-02-20,21.02
1994-02-21,17.6
1994-02-22,17.24
1994-02-23,26.06
1994-02-24,
1994-02-25,29.66
1994-02-26,30.02
1994-02-27,
1994-02-28,32.36
1994-03-01,33.98
1994-03-02,36.68
1994-03-03,
1994-03-04,30.92
1994-03-05,24.8
1994-03-06,21.38
1994-03-07,
1994-03-08,30.56
1994-03-09,
1994-03-10,
1994-03-11,19.22
1994-03-12,25.34
1994-03-13,36.14
1994-03-14,39.02
1994-03-15,33.44
1994-03-16,24.44
1994-03-17,22.28
1994-03-18,18.5
1994-03-19,12.74
1994-03-20,18.68
1994-03-21,18.5
1994-03-22,12.02
1994-03-23,13.28
1994-03-24,21.92
1994-03-25,25.7
1994-03-26,26.96
1994-03-27,33.8
1994-03-28,38.12
1994-03-29,33.26
1994-03-30,28.4
1994-03-31,28.22
1994-04-01,27.32
1994-04-02,30.92
1994-04-03,27.14
1994-04-04,21.2
1994-04-05,24.62
1994-04-06,25.16
1994-04-07,24.44
1994-04-08,28.22
1994-04-09,26.78
1994-04-10,23.72
1994-04-11,30.2
1994-04-12,33.26
1994-04-13,29.3
1994-04-14,
1994-04-15,36.32
1994-04-16,40.82
1994-04-17,40.64
1994-04-18,39.38
1994-04-19,33.62
1994-04-20,36.86
1994-04-21,29.48
1994-04-22,29.12
1994-04-23,28.58
1994-04-24,26.06
1994-04-25,26.42
1994-04-26,28.4
1994-04-27,28.4
1994-04-28,27.32
1994-04-29,32.0
1994-04-30,29.3
1994-05-01,28.94
1994-05-02,29.3
1994-05-03,33.08
1994-05-04,36.86
1994-05-05,36.86
1994-05-06,41.54
1994-05-07,39.74
1994-05-08,36.5
1994-05-09,42.44
1994-05-10,43.7
1994-05-11,38.3
1994-05-12,33.62
1994-05-13,28.04
1994-05-14,35.78
1994-05-15,28.76
1994-05-16,28.76
1994-05-17,27.86
1994-05-18,28.94
1994-05-19,34.34
1994-05-20,35.24
1994-05-21,32.36
1994-05-22,31.82
1994-05-23,40.64
1994-05-24,45.14
1994-05-25,41.72
1994-05-26,37.04
1994-05-27,30.2
1994-05-28,34.34
1994-05-29,37.22
1994-05-30,33.62
1994-05-31,38.48
1994-06-01,35.78
1994-06-02,40.28
1994-06-03,38.12
1994-06-04,39.2
1994-06-05,32.0
1994-06-06,31.1
1994-06-07,28.76
1994-06-08,30.74
1994-06-09,42.62
1994-06-10,44.78
1994-06-11,49.82
1994-06-12,45.32
1994-06-13,29.84
1994-06-14,27.86
1994-06-15,26.96
1994-06-16,29.12
1994-06-17,35.24
1994-06-18,32.72
1994-06-19,40.64
1994-06-20,45.14
1994-06-21,46.58
1994-06-22,45.14
1994-06-23,39.74
1994-06-24,38.48
1994-06-25,37.4
1994-06-26,36.14
1994-06-27,46.58
1994-06-28,52.7
1994-06-29,49.46
1994-06-30,48.74
1994-07-01,44.96
1994-07-02,43.88
1994-07-03,34.88
1994-07-04,39.92
1994-07-05,34.7
1994-07-06,40.28
1994-07-07,52.88
1994-07-08,57.02
1994-07-09,50.36
1994-07-10,50.0
1994-07-11,49.46
1994-07-12,46.58
1994-07-13,51.98
1994-07-14,51.26
1994-07-15,51.08
1994-07-16,56.48
1994-07-17,57.38
1994-07-18,51.98
1994-07-19,56.48
1994-07-20,60.08
1994-07-21,63.32
1994-07-22,51.98
1994-07-23,50.9
1994-07-24,49.82
1994-07-25,47.48
1994-07-26,48.02
1994-07-27,52.88
1994-07-28,54.14
1994-07-29,54.32
1994-07-30,49.64
1994-07-31,51.62
1994-08-01,52.52
1994-08-02,51.08
1994-08-03,49.82
1994-08-04,49.82
1994-08-05,46.4
1994-08-06,44.6
1994-08-07,44.06
1994-08-08,37.22
1994-08-09,41.36
1994-08-10,47.66
1994-08-11,48.92
1994-08-12,53.96
1994-08-13,50.72
1994-08-14,50.54
1994-08-15,47.84
1994-08-16,42.08
1994-08-17,42.62
1994-08-18,47.3
1994-08-19,41.9
1994-08-20,42.62
1994-08-21,41.36
1994-08-22,36.14
1994-08-23,48.92
1994-08-24,46.58
1994-08-25,48.92
1994-08-26,44.96
1994-08-27,48.02
1994-08-28,44.78
1994-08-29,39.92
1994-08-30,47.48
1994-08-31,48.38
1994-09-01,41.72
1994-09-02,37.22
1994-09-03,41.0
1994-09-04,35.24
1994-09-05,48.74
1994-09-06,51.08